Time,TemperatureF,DewpointF,PressureIn,WindDirection,WindDirectionDegrees,WindSpeedMPH,WindSpeedGustMPH,Humidity,HourlyPrecipIn,Conditions,Clouds,dailyrainin,SoftwareType,DateUTC
2013-03-15 00:00:00,26.4,18.0,29.66,WNW,292,8.4,14.5,74,0.00,,,0.00,Rainwise IP-100,2013-03-15 04:00:00,
2013-03-15 00:01:00,26.4,18.0,29.65,NNW,337,7.9,21.5,74,0.00,,,0.00,Rainwise IP-100,2013-03-15 04:01:00,
2013-03-15 00:06:00,26.2,18.0,29.65,NNW,337,7.7,20.3,73,0.00,,,0.00,Rainwise IP-100,2013-03-15 04:06:00,
2013-03-15 00:11:00,26.0,18.0,29.65,NW,315,8.4,20.5,73,0.00,,,0.00,Rainwise IP-100,2013-03-15 04:11:00,
2013-03-15 00:16:00,25.9,18.0,29.62,NW,315,11.7,14.2,73,0.00,,,0.00,Rainwise IP-100,2013-03-15 04:16:00,
2013-03-15 00:21:00,25.7,18.0,29.65,NW,315,10.0,14.9,74,0.00,,,0.00,Rainwise IP-100,2013-03-15 04:21:00,
2013-03-15 00:26:00,25.5,18.0,29.66,NNW,337,11.9,15.9,73,0.00,,,0.00,Rainwise IP-100,2013-03-15 04:26:00,
2013-03-15 00:31:00,25.4,18.0,29.65,NNW,337,9.1,21.7,74,0.00,,,0.00,Rainwise IP-100,2013-03-15 04:31:00,
2013-03-15 00:36:00,25.2,18.0,29.66,NNW,337,5.6,14.7,74,0.00,,,0.00,Rainwise IP-100,2013-03-15 04:36:00,
2013-03-15 00:41:00,25.0,21.0,29.67,NNW,337,10.3,17.0,75,0.00,,,0.00,Rainwise IP-100,2013-03-15 04:41:00,
2013-03-15 00:46:00,24.8,21.0,29.64,NNW,337,9.1,15.2,76,0.00,,,0.00,Rainwise IP-100,2013-03-15 04:46:00,
2013-03-15 00:52:00,24.5,21.0,29.67,WNW,292,7.9,16.3,77,0.00,,,0.00,Rainwise IP-100,2013-03-15 04:52:00,
2013-03-15 00:57:00,24.2,18.0,29.68,NNW,337,6.3,16.3,78,0.00,,,0.00,Rainwise IP-100,2013-03-15 04:57:00,
2013-03-15 01:02:00,23.9,18.0,29.67,North,0,12.1,20.3,79,0.00,,,0.00,Rainwise IP-100,2013-03-15 05:02:00,
2013-03-15 01:07:00,23.9,18.0,29.67,NNW,337,10.0,19.8,79,0.00,,,0.00,Rainwise IP-100,2013-03-15 05:07:00,
2013-03-15 01:11:00,23.9,18.0,29.65,WNW,292,8.4,17.5,79,0.00,,,0.00,Rainwise IP-100,2013-03-15 05:11:00,
2013-03-15 01:16:00,23.8,18.0,29.65,NW,315,8.4,16.8,80,0.00,,,0.00,Rainwise IP-100,2013-03-15 05:16:00,
2013-03-15 01:21:00,23.7,18.0,29.64,NNW,337,11.4,17.5,79,0.00,,,0.00,Rainwise IP-100,2013-03-15 05:21:00,
2013-03-15 01:26:00,23.6,18.0,29.63,NW,315,4.0,20.5,79,0.00,,,0.00,Rainwise IP-100,2013-03-15 05:26:00,
2013-03-15 01:31:00,23.3,16.0,29.67,NW,315,6.8,18.2,79,0.00,,,0.00,Rainwise IP-100,2013-03-15 05:31:00,
2013-03-15 01:36:00,23.2,16.0,29.66,NW,315,6.1,20.5,78,0.00,,,0.00,Rainwise IP-100,2013-03-15 05:36:00,
2013-03-15 01:41:00,23.1,16.0,29.66,NNW,337,10.5,16.6,78,0.00,,,0.00,Rainwise IP-100,2013-03-15 05:41:00,
2013-03-15 01:46:00,23.0,16.0,29.66,NNW,337,12.1,17.7,79,0.00,,,0.00,Rainwise IP-100,2013-03-15 05:46:00,
2013-03-15 01:51:00,23.0,16.0,29.64,NNW,337,11.2,17.5,79,0.00,,,0.00,Rainwise IP-100,2013-03-15 05:51:00,
2013-03-15 01:56:00,23.0,16.0,29.65,North,0,4.9,22.2,79,0.00,,,0.00,Rainwise IP-100,2013-03-15 05:56:00,
2013-03-15 02:01:00,22.9,18.0,29.67,WNW,292,12.4,19.6,80,0.00,,,0.00,Rainwise IP-100,2013-03-15 06:01:00,
2013-03-15 02:06:00,22.9,18.0,29.65,NW,315,10.3,20.3,80,0.00,,,0.00,Rainwise IP-100,2013-03-15 06:06:00,
2013-03-15 02:11:00,22.7,18.0,29.68,NW,315,7.9,13.8,80,0.00,,,0.00,Rainwise IP-100,2013-03-15 06:11:00,
2013-03-15 02:16:00,22.6,18.0,29.65,NNW,337,17.7,20.1,80,0.00,,,0.00,Rainwise IP-100,2013-03-15 06:16:00,
2013-03-15 02:21:00,22.8,16.0,29.67,NNW,337,19.6,23.6,79,0.00,,,0.00,Rainwise IP-100,2013-03-15 06:21:00,
2013-03-15 02:26:00,22.9,16.0,29.65,NNE,22,12.8,28.0,78,0.00,,,0.00,Rainwise IP-100,2013-03-15 06:26:00,
2013-03-15 02:31:00,23.0,16.0,29.66,NNW,337,11.7,18.2,79,0.00,,,0.00,Rainwise IP-100,2013-03-15 06:31:00,
2013-03-15 02:36:00,23.0,18.0,29.68,NW,315,12.6,18.9,80,0.00,,,0.00,Rainwise IP-100,2013-03-15 06:36:00,
2013-03-15 02:41:00,23.0,18.0,29.65,NW,315,16.6,23.1,80,0.00,,,0.00,Rainwise IP-100,2013-03-15 06:41:00,
2013-03-15 02:46:00,22.9,16.0,29.65,NW,315,12.1,19.1,79,0.00,,,0.00,Rainwise IP-100,2013-03-15 06:46:00,
2013-03-15 02:51:00,22.6,16.0,29.67,NNW,337,13.5,16.1,79,0.00,,,0.00,Rainwise IP-100,2013-03-15 06:51:00,
2013-03-15 02:56:00,22.4,16.0,29.66,NW,315,5.4,17.7,79,0.00,,,0.00,Rainwise IP-100,2013-03-15 06:56:00,
2013-03-15 03:01:00,22.4,18.0,29.64,NNW,337,18.7,19.8,80,0.00,,,0.00,Rainwise IP-100,2013-03-15 07:01:00,
2013-03-15 03:06:00,22.3,18.0,29.66,NNW,337,8.6,22.4,80,0.00,,,0.00,Rainwise IP-100,2013-03-15 07:06:00,
2013-03-15 03:11:00,22.3,16.0,29.64,NNW,337,15.6,22.9,79,0.00,,,0.00,Rainwise IP-100,2013-03-15 07:11:00,
2013-03-15 03:16:00,22.4,16.0,29.67,North,0,18.4,20.8,79,0.00,,,0.00,Rainwise IP-100,2013-03-15 07:16:00,
2013-03-15 03:21:00,22.4,16.0,29.66,NNW,337,19.1,20.5,79,0.00,,,0.00,Rainwise IP-100,2013-03-15 07:21:00,
2013-03-15 03:26:00,22.3,16.0,29.65,NNW,337,18.7,24.5,78,0.00,,,0.00,Rainwise IP-100,2013-03-15 07:26:00,
2013-03-15 03:31:00,22.3,16.0,29.63,NNW,337,22.2,26.1,78,0.00,,,0.00,Rainwise IP-100,2013-03-15 07:31:00,
2013-03-15 03:36:00,22.3,16.0,29.64,NNW,337,18.0,24.2,79,0.00,,,0.00,Rainwise IP-100,2013-03-15 07:36:00,
2013-03-15 03:42:00,22.2,16.0,29.65,NW,315,13.1,20.8,79,0.00,,,0.00,Rainwise IP-100,2013-03-15 07:42:00,
2013-03-15 03:47:00,22.2,18.0,29.66,NNW,337,11.4,22.9,80,0.00,,,0.00,Rainwise IP-100,2013-03-15 07:47:00,
2013-03-15 03:52:00,22.2,18.0,29.66,WNW,292,5.6,26.8,81,0.00,,,0.00,Rainwise IP-100,2013-03-15 07:52:00,
2013-03-15 03:57:00,22.0,18.0,29.66,North,0,4.7,22.2,81,0.00,,,0.00,Rainwise IP-100,2013-03-15 07:57:00,
2013-03-15 04:02:00,21.9,18.0,29.68,NNW,337,12.8,25.9,81,0.00,,,0.00,Rainwise IP-100,2013-03-15 08:02:00,
2013-03-15 04:07:00,21.9,18.0,29.65,NW,315,7.2,21.9,81,0.00,,,0.00,Rainwise IP-100,2013-03-15 08:07:00,
2013-03-15 04:12:00,21.8,18.0,29.65,NNW,337,11.4,25.2,81,0.00,,,0.00,Rainwise IP-100,2013-03-15 08:12:00,
2013-03-15 04:17:00,21.8,18.0,29.64,NNW,337,7.5,19.1,82,0.00,,,0.00,Rainwise IP-100,2013-03-15 08:17:00,
2013-03-15 04:22:00,21.7,18.0,29.65,NW,315,7.7,18.0,83,0.00,,,0.00,Rainwise IP-100,2013-03-15 08:22:00,
2013-03-15 04:27:00,21.4,16.0,29.66,NNW,337,5.6,17.7,83,0.00,,,0.00,Rainwise IP-100,2013-03-15 08:27:00,
2013-03-15 04:32:00,21.2,16.0,29.65,NNW,337,4.7,18.0,83,0.00,,,0.00,Rainwise IP-100,2013-03-15 08:32:00,
2013-03-15 04:37:00,20.9,16.0,29.66,NNW,337,7.2,20.5,83,0.00,,,0.00,Rainwise IP-100,2013-03-15 08:37:00,
2013-03-15 04:42:00,20.8,16.0,29.65,NNW,337,7.7,16.1,84,0.00,,,0.00,Rainwise IP-100,2013-03-15 08:42:00,
2013-03-15 04:47:00,20.8,16.0,29.64,WNW,292,5.6,19.4,84,0.00,,,0.00,Rainwise IP-100,2013-03-15 08:47:00,
2013-03-15 04:52:00,20.8,16.0,29.66,NW,315,10.0,18.0,84,0.00,,,0.00,Rainwise IP-100,2013-03-15 08:52:00,
2013-03-15 04:57:00,20.8,16.0,29.67,NNW,337,10.5,19.6,84,0.00,,,0.00,Rainwise IP-100,2013-03-15 08:57:00,
2013-03-15 05:02:00,20.7,16.0,29.65,NW,315,12.4,16.3,84,0.00,,,0.00,Rainwise IP-100,2013-03-15 09:02:00,
2013-03-15 05:07:00,20.6,16.0,29.65,WNW,292,6.8,19.1,83,0.00,,,0.00,Rainwise IP-100,2013-03-15 09:07:00,
2013-03-15 05:12:00,20.4,16.0,29.67,NNW,337,7.5,22.9,83,0.00,,,0.00,Rainwise IP-100,2013-03-15 09:12:00,
2013-03-15 05:17:00,20.3,16.0,29.68,NNW,337,10.7,18.7,83,0.00,,,0.00,Rainwise IP-100,2013-03-15 09:17:00,
2013-03-15 05:22:00,20.3,16.0,29.65,NNW,337,10.5,17.3,83,0.00,,,0.00,Rainwise IP-100,2013-03-15 09:22:00,
2013-03-15 05:27:00,20.2,16.0,29.65,NNW,337,14.9,20.1,84,0.00,,,0.00,Rainwise IP-100,2013-03-15 09:27:00,
2013-03-15 05:32:00,20.2,16.0,29.66,NNW,337,11.0,18.9,84,0.00,,,0.00,Rainwise IP-100,2013-03-15 09:32:00,
2013-03-15 05:37:00,20.1,16.0,29.68,NNW,337,15.6,20.1,85,0.00,,,0.00,Rainwise IP-100,2013-03-15 09:37:00,
2013-03-15 05:42:00,20.2,16.0,29.67,NNW,337,8.9,19.4,84,0.00,,,0.00,Rainwise IP-100,2013-03-15 09:42:00,
2013-03-15 05:47:00,20.3,16.0,29.69,NNW,337,14.2,17.3,83,0.00,,,0.00,Rainwise IP-100,2013-03-15 09:47:00,
2013-03-15 05:52:00,20.3,16.0,29.68,NNW,337,11.7,21.9,82,0.00,,,0.00,Rainwise IP-100,2013-03-15 09:52:00,
2013-03-15 05:57:00,20.3,16.0,29.68,NNW,337,8.2,22.9,82,0.00,,,0.00,Rainwise IP-100,2013-03-15 09:57:00,
2013-03-15 06:02:00,20.1,16.0,29.67,NW,315,11.4,19.6,81,0.00,,,0.00,Rainwise IP-100,2013-03-15 10:02:00,
2013-03-15 06:07:00,20.1,16.0,29.69,NW,315,13.8,22.9,81,0.00,,,0.00,Rainwise IP-100,2013-03-15 10:07:00,
2013-03-15 06:12:00,20.1,16.0,29.69,WNW,292,12.4,19.8,80,0.00,,,0.00,Rainwise IP-100,2013-03-15 10:12:00,
2013-03-15 06:17:00,20.1,16.0,29.69,WNW,292,9.3,19.8,80,0.00,,,0.00,Rainwise IP-100,2013-03-15 10:17:00,
2013-03-15 06:22:00,20.1,16.0,29.70,NW,315,8.9,24.2,79,0.00,,,0.00,Rainwise IP-100,2013-03-15 10:22:00,
2013-03-15 06:27:00,20.0,16.0,29.67,NNW,337,11.4,18.0,78,0.00,,,0.00,Rainwise IP-100,2013-03-15 10:27:00,
2013-03-15 06:32:00,19.9,16.0,29.69,WSW,247,13.3,17.3,79,0.00,,,0.00,Rainwise IP-100,2013-03-15 10:32:00,
2013-03-15 06:37:00,19.9,16.0,29.69,NNW,337,13.1,18.2,78,0.00,,,0.00,Rainwise IP-100,2013-03-15 10:37:00,
2013-03-15 06:42:00,19.7,14.0,29.70,NNW,337,9.8,24.0,76,0.00,,,0.00,Rainwise IP-100,2013-03-15 10:42:00,
2013-03-15 06:47:00,19.6,14.0,29.68,NNW,337,12.8,24.0,75,0.00,,,0.00,Rainwise IP-100,2013-03-15 10:47:00,
2013-03-15 06:52:00,19.5,14.0,29.68,NW,315,25.6,25.6,75,0.00,,,0.00,Rainwise IP-100,2013-03-15 10:52:00,
2013-03-15 06:57:00,19.7,14.0,29.69,NNW,337,11.7,28.2,74,0.00,,,0.00,Rainwise IP-100,2013-03-15 10:57:00,
2013-03-15 07:02:00,19.6,14.0,29.69,NNW,337,10.0,20.8,74,0.00,,,0.00,Rainwise IP-100,2013-03-15 11:02:00,
2013-03-15 07:07:00,19.4,14.0,29.71,NNW,337,21.7,21.7,72,0.00,,,0.00,Rainwise IP-100,2013-03-15 11:07:00,
2013-03-15 07:12:00,19.4,14.0,29.72,NNW,337,11.0,21.7,72,0.00,,,0.00,Rainwise IP-100,2013-03-15 11:12:00,
2013-03-15 07:17:00,19.5,14.0,29.70,NW,315,9.6,20.5,72,0.00,,,0.00,Rainwise IP-100,2013-03-15 11:17:00,
2013-03-15 07:22:00,19.5,14.0,29.72,NNW,337,10.5,22.9,71,0.00,,,0.00,Rainwise IP-100,2013-03-15 11:22:00,
2013-03-15 07:27:00,19.5,14.0,29.69,NNW,337,5.1,20.5,71,0.00,,,0.00,Rainwise IP-100,2013-03-15 11:27:00,
2013-03-15 07:32:00,19.5,14.0,29.70,NNW,337,11.0,21.0,71,0.00,,,0.00,Rainwise IP-100,2013-03-15 11:32:00,
2013-03-15 07:37:00,19.4,14.0,29.70,North,0,8.9,19.6,70,0.00,,,0.00,Rainwise IP-100,2013-03-15 11:37:00,
2013-03-15 07:42:00,19.6,14.0,29.72,NW,315,10.5,21.2,71,0.00,,,0.00,Rainwise IP-100,2013-03-15 11:42:00,
2013-03-15 07:47:00,19.6,14.0,29.69,NNW,337,11.0,21.0,70,0.00,,,0.00,Rainwise IP-100,2013-03-15 11:47:00,
2013-03-15 07:52:00,19.6,14.0,29.73,NNW,337,8.9,23.3,70,0.00,,,0.00,Rainwise IP-100,2013-03-15 11:52:00,
2013-03-15 07:57:00,19.6,14.0,29.71,NW,315,9.6,19.6,70,0.00,,,0.00,Rainwise IP-100,2013-03-15 11:57:00,
2013-03-15 08:02:00,19.5,14.0,29.71,NNW,337,18.9,22.2,70,0.00,,,0.00,Rainwise IP-100,2013-03-15 12:02:00,
2013-03-15 08:07:00,19.4,14.0,29.70,NNW,337,13.8,21.9,70,0.00,,,0.00,Rainwise IP-100,2013-03-15 12:07:00,
2013-03-15 08:12:00,19.4,14.0,29.72,NNW,337,19.4,19.4,69,0.00,,,0.00,Rainwise IP-100,2013-03-15 12:12:00,
2013-03-15 08:17:00,19.4,14.0,29.72,NNW,337,17.5,21.0,69,0.00,,,0.00,Rainwise IP-100,2013-03-15 12:17:00,
2013-03-15 08:22:00,19.4,14.0,29.70,NNW,337,10.3,19.6,69,0.00,,,0.00,Rainwise IP-100,2013-03-15 12:22:00,
2013-03-15 08:27:00,19.6,14.0,29.71,NW,315,10.3,23.6,69,0.00,,,0.00,Rainwise IP-100,2013-03-15 12:27:00,
2013-03-15 08:32:00,19.8,14.0,29.68,NNW,337,14.5,24.7,69,0.00,,,0.00,Rainwise IP-100,2013-03-15 12:32:00,
2013-03-15 08:37:00,20.0,14.0,29.72,NW,315,8.4,22.6,69,0.00,,,0.00,Rainwise IP-100,2013-03-15 12:37:00,
2013-03-15 08:42:00,20.0,11.0,29.72,NNW,337,21.5,21.7,68,0.00,,,0.00,Rainwise IP-100,2013-03-15 12:42:00,
2013-03-15 08:47:00,19.7,11.0,29.69,NNW,337,13.8,21.5,68,0.00,,,0.00,Rainwise IP-100,2013-03-15 12:47:00,
2013-03-15 08:52:00,19.5,11.0,29.70,NW,315,14.7,15.9,67,0.00,,,0.00,Rainwise IP-100,2013-03-15 12:52:00,
2013-03-15 08:57:00,19.7,11.0,29.70,NNW,337,9.3,18.7,68,0.00,,,0.00,Rainwise IP-100,2013-03-15 12:57:00,
2013-03-15 09:02:00,19.9,11.0,29.69,WNW,292,5.1,16.1,68,0.00,,,0.00,Rainwise IP-100,2013-03-15 13:02:00,
2013-03-15 09:07:00,20.1,11.0,29.70,NNW,337,18.9,19.4,67,0.00,,,0.00,Rainwise IP-100,2013-03-15 13:07:00,
2013-03-15 09:12:00,20.3,11.0,29.70,NNW,337,15.6,23.6,66,0.00,,,0.00,Rainwise IP-100,2013-03-15 13:12:00,
2013-03-15 09:17:00,20.3,11.0,29.70,North,0,21.0,24.5,66,0.00,,,0.00,Rainwise IP-100,2013-03-15 13:17:00,
2013-03-15 09:22:00,20.3,11.0,29.70,North,0,8.2,21.9,66,0.00,,,0.00,Rainwise IP-100,2013-03-15 13:22:00,
2013-03-15 09:27:00,20.3,11.0,29.70,NNW,337,13.1,19.1,66,0.00,,,0.00,Rainwise IP-100,2013-03-15 13:27:00,
2013-03-15 09:32:00,20.5,11.0,29.69,NNE,22,13.1,21.0,65,0.00,,,0.00,Rainwise IP-100,2013-03-15 13:32:00,
2013-03-15 09:37:00,20.9,11.0,29.69,NNW,337,13.5,22.9,64,0.00,,,0.00,Rainwise IP-100,2013-03-15 13:37:00,
2013-03-15 09:42:00,21.4,11.0,29.70,NNW,337,9.8,16.8,65,0.00,,,0.00,Rainwise IP-100,2013-03-15 13:42:00,
2013-03-15 09:47:00,21.5,14.0,29.71,NNW,337,17.3,17.3,64,0.00,,,0.00,Rainwise IP-100,2013-03-15 13:47:00,
2013-03-15 09:52:00,21.5,14.0,29.69,North,0,4.0,22.6,63,0.00,,,0.00,Rainwise IP-100,2013-03-15 13:52:00,
2013-03-15 09:57:00,21.7,14.0,29.72,NNW,337,8.4,18.2,64,0.00,,,0.00,Rainwise IP-100,2013-03-15 13:57:00,
2013-03-15 10:02:00,21.8,14.0,29.70,NNW,337,11.2,18.2,64,0.00,,,0.00,Rainwise IP-100,2013-03-15 14:02:00,
2013-03-15 10:07:00,21.5,14.0,29.72,NNW,337,8.9,18.4,63,0.00,,,0.00,Rainwise IP-100,2013-03-15 14:07:00,
2013-03-15 10:12:00,21.6,14.0,29.70,North,0,8.9,17.0,63,0.00,,,0.00,Rainwise IP-100,2013-03-15 14:12:00,
2013-03-15 10:17:00,21.9,14.0,29.72,NNW,337,5.6,13.5,63,0.00,,,0.00,Rainwise IP-100,2013-03-15 14:17:00,
2013-03-15 10:22:00,21.9,14.0,29.72,NNW,337,6.8,16.3,63,0.00,,,0.00,Rainwise IP-100,2013-03-15 14:22:00,
2013-03-15 10:27:00,21.9,11.0,29.70,NNW,337,4.9,14.7,61,0.00,,,0.00,Rainwise IP-100,2013-03-15 14:27:00,
2013-03-15 10:32:00,22.1,11.0,29.67,NNW,337,17.7,18.9,61,0.00,,,0.00,Rainwise IP-100,2013-03-15 14:32:00,
2013-03-15 10:37:00,22.5,11.0,29.68,NNW,337,4.0,18.2,61,0.00,,,0.00,Rainwise IP-100,2013-03-15 14:37:00,
2013-03-15 10:42:00,23.0,11.0,29.69,NNW,337,11.9,12.6,60,0.00,,,0.00,Rainwise IP-100,2013-03-15 14:42:00,
2013-03-15 10:47:00,23.5,14.0,29.71,NNW,337,8.6,17.3,58,0.00,,,0.00,Rainwise IP-100,2013-03-15 14:47:00,
2013-03-15 10:52:00,23.6,11.0,29.68,NNW,337,13.5,19.1,57,0.00,,,0.00,Rainwise IP-100,2013-03-15 14:52:00,
2013-03-15 10:57:00,23.6,11.0,29.68,NNE,22,14.9,18.9,57,0.00,,,0.00,Rainwise IP-100,2013-03-15 14:57:00,
2013-03-15 11:02:00,23.6,11.0,29.69,NNW,337,22.2,22.2,57,0.00,,,0.00,Rainwise IP-100,2013-03-15 15:02:00,
2013-03-15 11:07:00,23.7,11.0,29.71,NW,315,6.8,22.2,56,0.00,,,0.00,Rainwise IP-100,2013-03-15 15:07:00,
2013-03-15 11:12:00,24.1,11.0,29.69,North,0,12.1,18.9,57,0.00,,,0.00,Rainwise IP-100,2013-03-15 15:12:00,
2013-03-15 11:17:00,24.2,11.0,29.69,NNW,337,8.4,19.1,57,0.00,,,0.00,Rainwise IP-100,2013-03-15 15:17:00,
2013-03-15 11:22:00,24.2,11.0,29.69,NW,315,11.4,18.7,55,0.00,,,0.00,Rainwise IP-100,2013-03-15 15:22:00,
2013-03-15 11:27:00,24.5,14.0,29.68,NNW,337,8.6,15.2,55,0.00,,,0.00,Rainwise IP-100,2013-03-15 15:27:00,
2013-03-15 11:32:00,24.7,14.0,29.71,NNW,337,12.8,16.8,54,0.00,,,0.00,Rainwise IP-100,2013-03-15 15:32:00,
2013-03-15 11:37:00,24.7,14.0,29.69,NNW,337,10.5,19.4,54,0.00,,,0.00,Rainwise IP-100,2013-03-15 15:37:00,
2013-03-15 11:43:00,24.6,14.0,29.68,NNW,337,14.2,15.9,54,0.00,,,0.00,Rainwise IP-100,2013-03-15 15:43:00,
2013-03-15 11:48:00,24.9,14.0,29.68,NNE,22,10.0,17.3,55,0.00,,,0.00,Rainwise IP-100,2013-03-15 15:48:00,
2013-03-15 11:53:00,25.3,14.0,29.65,NNW,337,10.7,15.9,55,0.00,,,0.00,Rainwise IP-100,2013-03-15 15:53:00,
2013-03-15 11:58:00,25.5,11.0,29.66,NNW,337,9.8,15.4,53,0.00,,,0.00,Rainwise IP-100,2013-03-15 15:58:00,
2013-03-15 12:03:00,25.4,11.0,29.67,WNW,292,4.7,14.9,53,0.00,,,0.00,Rainwise IP-100,2013-03-15 16:03:00,
2013-03-15 12:08:00,25.7,11.0,29.67,NNW,337,10.7,14.9,52,0.00,,,0.00,Rainwise IP-100,2013-03-15 16:08:00,
2013-03-15 12:13:00,25.8,11.0,29.66,NNW,337,10.7,14.2,52,0.00,,,0.00,Rainwise IP-100,2013-03-15 16:13:00,
2013-03-15 12:18:00,25.7,11.0,29.69,NW,315,10.5,16.6,52,0.00,,,0.00,Rainwise IP-100,2013-03-15 16:18:00,
2013-03-15 12:23:00,25.9,11.0,29.66,North,0,11.4,17.3,52,0.00,,,0.00,Rainwise IP-100,2013-03-15 16:23:00,
2013-03-15 12:28:00,26.3,11.0,29.66,NW,315,7.0,15.9,52,0.00,,,0.00,Rainwise IP-100,2013-03-15 16:28:00,
2013-03-15 12:33:00,26.8,14.0,29.66,NNW,337,12.8,12.8,52,0.00,,,0.00,Rainwise IP-100,2013-03-15 16:33:00,
2013-03-15 12:38:00,27.4,14.0,29.66,NW,315,8.9,12.8,52,0.00,,,0.00,Rainwise IP-100,2013-03-15 16:38:00,
2013-03-15 12:43:00,27.7,14.0,29.69,WSW,247,0.0,11.2,51,0.00,,,0.00,Rainwise IP-100,2013-03-15 16:43:00,
2013-03-15 12:48:00,28.6,14.0,29.68,NW,315,7.0,8.4,48,0.00,,,0.00,Rainwise IP-100,2013-03-15 16:48:00,
2013-03-15 12:53:00,28.7,14.0,29.64,NNW,337,9.8,11.4,47,0.00,,,0.00,Rainwise IP-100,2013-03-15 16:53:00,
2013-03-15 12:58:00,28.1,11.0,29.69,NNW,337,11.0,13.8,47,0.00,,,0.00,Rainwise IP-100,2013-03-15 16:58:00,
2013-03-15 13:03:00,28.2,11.0,29.66,NNW,337,7.2,12.6,48,0.00,,,0.00,Rainwise IP-100,2013-03-15 17:03:00,
2013-03-15 13:08:00,28.4,11.0,29.66,NNW,337,7.5,12.1,47,0.00,,,0.00,Rainwise IP-100,2013-03-15 17:08:00,
2013-03-15 13:13:00,28.7,11.0,29.66,North,0,7.0,12.6,46,0.00,,,0.00,Rainwise IP-100,2013-03-15 17:13:00,
2013-03-15 13:18:00,28.9,11.0,29.65,NNW,337,7.0,11.9,46,0.00,,,0.00,Rainwise IP-100,2013-03-15 17:18:00,
2013-03-15 13:23:00,29.4,11.0,29.66,NW,315,12.8,12.8,46,0.00,,,0.00,Rainwise IP-100,2013-03-15 17:23:00,
2013-03-15 13:28:00,29.6,14.0,29.65,NW,315,9.3,12.8,45,0.00,,,0.00,Rainwise IP-100,2013-03-15 17:28:00,
2013-03-15 13:33:00,29.1,11.0,29.64,WSW,247,4.0,17.7,46,0.00,,,0.00,Rainwise IP-100,2013-03-15 17:33:00,
2013-03-15 13:38:00,29.5,14.0,29.67,WNW,292,3.3,10.0,46,0.00,,,0.00,Rainwise IP-100,2013-03-15 17:38:00,
2013-03-15 13:43:00,29.9,14.0,29.66,NNW,337,14.2,15.2,46,0.00,,,0.00,Rainwise IP-100,2013-03-15 17:43:00,
2013-03-15 13:48:00,30.0,14.0,29.63,WNW,292,5.1,14.2,45,0.00,,,0.00,Rainwise IP-100,2013-03-15 17:48:00,
2013-03-15 13:53:00,30.1,11.0,29.63,NNW,337,6.1,13.8,44,0.00,,,0.00,Rainwise IP-100,2013-03-15 17:53:00,
2013-03-15 13:58:00,30.0,11.0,29.65,NW,315,2.1,13.5,44,0.00,,,0.00,Rainwise IP-100,2013-03-15 17:58:00,
2013-03-15 14:03:00,30.3,14.0,29.61,NNW,337,12.6,13.3,45,0.00,,,0.00,Rainwise IP-100,2013-03-15 18:03:00,
2013-03-15 14:08:00,30.1,11.0,29.61,NNW,337,9.8,15.6,43,0.00,,,0.00,Rainwise IP-100,2013-03-15 18:08:00,
2013-03-15 14:13:00,29.6,11.0,29.63,NNW,337,13.5,15.6,43,0.00,,,0.00,Rainwise IP-100,2013-03-15 18:13:00,
2013-03-15 14:18:00,29.8,11.0,29.63,NNW,337,15.6,15.6,43,0.00,,,0.00,Rainwise IP-100,2013-03-15 18:18:00,
2013-03-15 14:23:00,29.9,11.0,29.65,NNW,337,6.5,17.0,43,0.00,,,0.00,Rainwise IP-100,2013-03-15 18:23:00,
2013-03-15 14:28:00,30.2,11.0,29.64,NNW,337,6.5,14.0,43,0.00,,,0.00,Rainwise IP-100,2013-03-15 18:28:00,
2013-03-15 14:33:00,30.7,11.0,29.63,NNW,337,5.8,14.0,42,0.00,,,0.00,Rainwise IP-100,2013-03-15 18:33:00,
2013-03-15 14:38:00,30.6,11.0,29.61,NNW,337,5.4,14.2,42,0.00,,,0.00,Rainwise IP-100,2013-03-15 18:38:00,
2013-03-15 14:43:00,30.6,11.0,29.64,West,270,5.8,13.8,42,0.00,,,0.00,Rainwise IP-100,2013-03-15 18:43:00,
2013-03-15 14:48:00,31.0,11.0,29.63,WNW,292,5.1,11.7,42,0.00,,,0.00,Rainwise IP-100,2013-03-15 18:48:00,
2013-03-15 14:53:00,31.4,11.0,29.61,NNW,337,6.3,15.2,41,0.00,,,0.00,Rainwise IP-100,2013-03-15 18:53:00,
2013-03-15 14:58:00,31.6,11.0,29.61,NW,315,12.1,13.1,40,0.00,,,0.00,Rainwise IP-100,2013-03-15 18:58:00,
2013-03-15 15:03:00,31.4,11.0,29.62,NNW,337,8.9,16.6,40,0.00,,,0.00,Rainwise IP-100,2013-03-15 19:03:00,
2013-03-15 15:08:00,31.1,11.0,29.63,NW,315,8.9,15.4,41,0.00,,,0.00,Rainwise IP-100,2013-03-15 19:08:00,
2013-03-15 15:13:00,31.0,11.0,29.62,NW,315,8.2,15.6,41,0.00,,,0.00,Rainwise IP-100,2013-03-15 19:13:00,
2013-03-15 15:18:00,31.4,11.0,29.62,WSW,247,8.4,12.6,41,0.00,,,0.00,Rainwise IP-100,2013-03-15 19:18:00,
2013-03-15 15:23:00,31.7,11.0,29.63,NNW,337,11.4,14.0,41,0.00,,,0.00,Rainwise IP-100,2013-03-15 19:23:00,
2013-03-15 15:28:00,31.6,11.0,29.61,NNW,337,11.0,14.7,40,0.00,,,0.00,Rainwise IP-100,2013-03-15 19:28:00,
2013-03-15 15:33:00,31.3,11.0,29.60,NW,315,3.5,17.5,41,0.00,,,0.00,Rainwise IP-100,2013-03-15 19:33:00,
2013-03-15 15:38:00,31.8,14.0,29.63,North,0,3.3,9.3,42,0.00,,,0.00,Rainwise IP-100,2013-03-15 19:38:00,
2013-03-15 15:43:00,32.4,11.0,29.61,NW,315,0.0,8.6,41,0.00,,,0.00,Rainwise IP-100,2013-03-15 19:43:00,